Regional Weather Roundup
Issued by NWS

Home | Current Version | Previous Version | Graphics & Text | Print | Product List | Glossary On
Versions: 1 2 3 4 5 6 7 8 9 10 11 12 13 14 15 16 17 18 19 20 21 22 23 24 25 26 27 28 29 30 31 32 33 34 35 36 37 38 39 40 41 42 43 44 45 46 47 48 49 50
000
ASUS45 KBOU 232007
RWRCO

WEATHER ROUNDUP FOR COLORADO
NATIONAL WEATHER SERVICE DENVER/BOULDER CO
200 PM MDT SAT MAY 23 2015

NOTE: "FAIR" INDICATES FEW OR NO CLOUDS BELOW 12000 FEET WITH NO
SIGNIFICANT WEATHER AND/OR OBSTRUCTIONS TO VISIBILITY.

COZ001>005-013-030-031-232100-
...NORTHWEST COLORADO...

CITY           SKY/WX    TMP DP  RH WIND       PRES   REMARKS
CRAIG          PTSUNNY   56  38  50 W18       29.96S
HAYDEN         CLOUDY    52  34  50 W22G28    29.95R
MEEKER         PTSUNNY   55  34  45 MISG      29.95F
MOUNT WERNER   NOT AVBL
STEAMBOAT SPGS CLOUDY    50  36  60 SE3       29.94S
WALDEN         CLOUDY    52  28  40 E14       29.98S
$$

COZ006>008-011-232100-
...WEST CENTRAL VALLEYS...

CITY           SKY/WX    TMP DP  RH WIND       PRES   REMARKS
GRAND JUNCTION CLOUDY    61  32  33 VRB6      29.92S
MONTROSE       CLOUDY    52  38  58 NW6       30.04R
EAGLE          MOSUNNY   57  34  41 SW17G26   29.94F
RIFLE          PTSUNNY   59  34  39 CALM      29.93F
DELTA          CLOUDY    51  38  61 MISG      30.02R THUNDER
NUCLA          TSTM      52  37  58 NE8       30.02F
$$

COZ017>023-064>068-232100-
...SOUTHWEST COLORADO...

CITY           SKY/WX    TMP DP  RH WIND       PRES   REMARKS
DURANGO        PTSUNNY   57  25  29 SW14      30.02F
CORTEZ         PTSUNNY   56  32  40 SW16      30.03R
PAGOSA SPRINGS PTSUNNY   54  20  27 S9G23     30.05S
TELLURIDE      LGT SNOW  37  31  78 S5        30.11R
WOLF CREEK PAS NOT AVBL
$$

COZ009-010-012-014-032>034-037-058>063-232100-
...CENTRAL COLORADO...

CITY           SKY/WX    TMP DP  RH WIND       PRES   REMARKS
ASPEN          PTSUNNY   49  26  41 W13G30    29.97F
BUENA VISTA    PTSUNNY   55  22  27 SE20G33   29.99F
COPPER MTN     CLOUDY    36  27  69 SE12G20   30.12S
BERTHOUD PASS  PTSUNNY   28  21  74 SE21      30.16S WCI  15
COTTONWOOD PAS PTSUNNY   48  32  53 S10G20    30.05F
GUNNISON       MOSUNNY   54  27  35 W18       29.99F
KREMMLING      LGT RAIN  46  34  61 W13G18    29.98R
LEADVILLE      PTSUNNY   42  26  53 VRB6      30.04F
MONARCH PASS   PTSUNNY   34  23  64 SW21G29   30.23F WCI  22
SALIDA         PTSUNNY   58  28  32 S14G21    30.05F
SUNLIGHT       PTSUNNY   43  30  61 CALM      30.12R THUNDER
WILKERSON PASS SNOW      30  28  93 SW15G24   30.13F VSB<1/4 WCI  19
$$

COZ069>075-232100-
...SAN LUIS VALLEY/SANGRE DE CRISTO MOUNTAINS...

CITY           SKY/WX    TMP DP  RH WIND       PRES   REMARKS
ALAMOSA        MOSUNNY   60  24  25 S20G30    29.98F
LA VETA PASS   MOSUNNY  N/A N/A N/A MISG      30.08F THUNDER
SAGUACHE       PTSUNNY   52  32  46 S7G16     30.01F
$$

COZ035-036-038>040-232100-
...NORTHERN COLORADO FRONT RANGE...

CITY           SKY/WX    TMP DP  RH WIND       PRES   REMARKS
DENVER INTL AP CLOUDY    62  52  69 SE9G20    29.91F THUNDER
DMNS CITY PARK   N/A     48  47  95 W3G10     29.96R
AURORA         PTSUNNY   61  41  46 S13       29.93R
FRONT RANGE AP PTSUNNY   61  54  77 SE25G31   29.93F
ERIE MUNI ARPT TSTM      50  46  85 N6        29.95R
BOULDER MUN AP LGT RAIN  50  46  87 CALM      29.91F
CENTENNIAL     CLOUDY    62  37  39 SE12      29.93F
BROOMFIELD     TSTM      48  45  87 NW9       29.95S
FORT COLLINS   CLOUDY    55  46  71 W3        29.94F
LONGMONT       CLOUDY    52  47  82 NW10      29.94F
$$

COZ041-046-047-076>085-087-088-232100-
...PIKES PEAK/PALMER DIVIDE AND SOUTHERN FOOTHILLS...

CITY           SKY/WX    TMP DP  RH WIND       PRES   REMARKS
COLO. SPRINGS  CLOUDY    55  49  80 E7        29.95F THUNDER
A. F. ACADEMY  LGT RAIN  54  43  66 E7        29.96S
ELLICOTT       NOT AVBL
FALCON         CLOUDY    48  42  79 N7        29.99F THUNDER
FORT CARSON    MOSUNNY   57  50  75 SE9       29.92F
LIMON          CLOUDY    59  49  69 SE20      29.94F
MONUMENT HILL  NOT AVBL
TRINIDAD       PTSUNNY   59  38  45 SW18G31   29.92F
$$

COZ042>045-048>051-090-091-232100-
...NORTHEAST COLORADO...

CITY           SKY/WX    TMP DP  RH WIND       PRES   REMARKS
GREELEY ARPT   CLOUDY    57  48  72 NE9       29.92F
AKRON          PTSUNNY   67  52  58 SE18G24   29.92F
BURLINGTON     MOSUNNY   65  52  62 SE20G30   29.95F
WRAY             N/A     66  53  63 E18G25    29.97F
STERLING       HVY RAIN  59  55  88 SE5       29.92F
HOLYOKE        NOT AVBL
FORT MORGAN    PTSUNNY   59  49  70 NE3       29.92F
$$

COZ086-089-092>099-232100-
...SOUTHEAST COLORADO...

CITY           SKY/WX    TMP DP  RH WIND       PRES   REMARKS
PUEBLO         CLOUDY    61  49  64 SE7       29.88F
LA JUNTA       CLOUDY    66  53  63 SE23      29.85F THUNDER
LAMAR          CLOUDY    69  54  58 S15G29    29.88F
SPRINGFIELD      N/A     67  55  65 S20G25    29.92F
$$



USA.gov is the U.S. government's official web portal to all federal, state and local government web resources and services.